Simultaneous Nadir Overpasses (SNOs) Predictions

Prediction of SNOs between GOES-16 and AQUA Satellite Orbit:

Table of predicted SNOs for the next 14.0 days since TLE Epoch: 4/10/2021
Index Date Time (GOES-16) GOES-16 Lat,Lon AQUA Lat,Lon Distance(km) Time Diff (sec)
1 04/11/2021 18:23:06 0.03, -75.21 0.76, -71.67 400.94 80
2 04/12/2021 06:44:20 -0.03, -75.21 0.34, -76.83 184.74 80
3 04/14/2021 06:29:29 -0.03, -75.22 -0.35, -73.88 153.08 80
4 04/14/2021 18:50:53 0.03, -75.22 -0.78, -79.07 437.25 80
5 04/16/2021 06:17:18 -0.03, -75.24 -0.97, -70.92 491.16 80
6 04/16/2021 18:38:41 0.03, -75.24 -0.15, -76.11 98.99 80
7 04/18/2021 18:29:09 0.02, -75.26 0.48, -73.15 239.60 80
8 04/19/2021 06:50:24 -0.02, -75.27 0.62, -78.31 345.28 80
9 04/21/2021 06:38:12 -0.02, -75.30 -0.02, -75.35 6.39 80
10 04/23/2021 06:23:20 -0.01, -75.32 -0.66, -72.40 333.45 80
11 04/23/2021 18:44:44 0.01, -75.33 -0.46, -77.58 256.75 80
